GW6766 Weather Reports


Display with metric or nautical units.
time (UTC)temp
F
wind
direction
speed
MPH
gust
MPH
rain 1hr
in
rain 24hr
in
rain mn
in
humidity
%
barometer
mb
20260505075121 50 19 4.0 9.0 0.00 0.00 0.00 49 1003.9
20260505074621 50 332 4.0 10.0 0.00 0.00 0.00 48 1003.9
20260505074121 51 215 5.0 11.0 0.00 0.00 0.00 47 1003.9
20260505073841 51 341 6.0 11.0 0.00 0.00 0.00 47 1003.9
20260505073115 51 316 6.0 12.0 0.00 0.00 0.00 47 1003.8
20260505072615 51 324 6.0 13.0 0.00 0.00 0.00 46 1003.8
20260505072116 51 304 5.0 13.0 0.00 0.00 0.00 47 1003.8
20260505071616 52 315 5.0 11.0 0.00 0.00 0.00 47 1003.8
20260505071111 52 312 5.0 13.0 0.00 0.00 0.00 47 1003.8
20260505070615 52 276 5.0 13.0 0.00 0.00 0.00 47 1003.8
20260505070113 52 272 5.0 12.0 0.00 0.00 0.00 47 1003.5
20260505065839 53 299 5.0 11.0 0.00 0.00 0.00 46 1003.4
20260505065113 53 316 4.0 11.0 0.00 0.00 0.00 46 1003.3
20260505064614 53 309 5.0 11.0 0.00 0.00 0.00 46 1003.2
20260505064113 53 294 6.0 12.0 0.00 0.00 0.00 46 1003.1
20260505063613 53 355 6.0 12.0 0.00 0.00 0.00 45 1003.0
20260505063114 54 332 6.0 11.0 0.00 0.00 0.00 46 1003.0
20260505062614 54 317 6.0 11.0 0.00 0.00 0.00 45 1002.9
20260505062113 54 335 5.0 10.0 0.00 0.00 0.00 46 1002.9
20260505061614 55 330 5.0 10.0 0.00 0.00 0.00 45 1002.8
20260505061338 55 295 6.0 12.0 0.00 0.00 0.00 45 1002.8
20260505060608 55 317 6.0 12.0 0.00 0.00 0.00 44 1002.9
20260505060108 56 302 6.0 16.0 0.00 0.00 0.00 44 1002.9
20260505060044 56 278 7.0 16.0 0.00 0.00 0.00 44 1003.0
20260505055108 56 325 6.0 12.0 0.00 0.00 0.00 43 1002.8
20260505054608 57 310 5.0 12.0 0.00 0.00 0.00 43 1002.8
20260505054334 57 303 5.0 9.0 0.00 0.00 0.00 43 1002.7
20260505053608 57 295 4.0 9.0 0.00 0.00 0.00 43 1002.5
20260505053110 58 254 5.0 10.0 0.00 0.00 0.00 42 1002.4
20260505052108 58 316 5.0 14.0 0.00 0.00 0.00 40 1002.0
20260505051609 58 316 5.0 14.0 0.00 0.00 0.00 40 1002.0
20260505051328 59 310 5.0 10.0 0.00 0.00 0.00 38 1001.6
20260505050603 59 324 5.0 10.0 0.00 0.00 0.00 38 1001.4
20260505050105 59 325 5.0 10.0 0.00 0.00 0.00 38 1001.5
20260505041604 62 247 7.0 15.0 0.00 0.00 0.00 35 1000.7
20260505041546 62 337 6.0 15.0 0.00 0.00 0.00 34 1000.6
20260505040559 62 241 6.0 12.0 0.00 0.00 0.00 34 1000.4
20260505040059 62 296 6.0 12.0 0.00 0.00 0.00 34 1000.3
20260505035558 62 220 5.0 14.0 0.00 0.00 0.00 34 1000.3
20260505035058 63 227 5.0 14.0 0.00 0.00 0.00 34 1000.3
20260505034559 63 293 5.0 12.0 0.00 0.00 0.00 34 1000.4
20260505034058 63 253 6.0 16.0 0.00 0.00 0.00 34 1000.4
20260505033558 63 271 6.0 16.0 0.00 0.00 0.00 33 1000.3
20260505033059 63 303 5.0 10.0 0.00 0.00 0.00 33 1000.4
20260505032559 64 270 4.0 9.0 0.00 0.00 0.00 33 1000.4
20260505032059 64 281 4.0 9.0 0.00 0.00 0.00 34 1000.4
20260505031820 64 266 4.0 12.0 0.00 0.00 0.00 35 1000.5
20260505031055 64 313 3.0 12.0 0.00 0.00 0.00 35 1000.2
20260505030555 64 246 4.0 11.0 0.00 0.00 0.00 35 1000.1
20260505030054 64 218 5.0 13.0 0.00 0.00 0.00 34 1000.0
20260505025555 65 270 6.0 15.0 0.00 0.00 0.00 35 999.8
20260505025054 65 296 6.0 15.0 0.00 0.00 0.00 33 999.8
20260505024556 65 282 5.0 10.0 0.00 0.00 0.00 34 999.7
20260505024055 65 259 5.0 10.0 0.00 0.00 0.00 36 999.8
20260505023820 66 342 6.0 15.0 0.00 0.00 0.00 37 999.6
20260505023056 66 324 7.0 15.0 0.00 0.00 0.00 36 999.6
20260505022556 66 306 6.0 12.0 0.00 0.00 0.00 37 999.4
20260505022056 66 299 5.0 11.0 0.00 0.00 0.00 39 999.3
20260505021825 67 250 6.0 14.0 0.00 0.00 0.00 38 999.2
20260505021055 67 240 7.0 14.0 0.00 0.00 0.00 38 999.2
20260505020815 67 271 6.0 14.0 0.00 0.00 0.00 37 999.0
20260505020318 67 286 5.0 11.0 0.00 0.00 0.00 37 999.0
20260505015554 68 254 5.0 12.0 0.00 0.00 0.00 37 998.9
20260505015056 68 287 5.0 12.0 0.00 0.00 0.00 37 998.8
20260505014555 68 308 5.0 10.0 0.00 0.00 0.00 37 998.6
20260505014056 69 271 4.0 10.0 0.00 0.00 0.00 37 998.5
20260505013555 69 331 5.0 11.0 0.00 0.00 0.00 37 998.2
20260505013054 69 307 6.0 13.0 0.00 0.00 0.00 36 998.0
20260505012554 70 298 5.0 13.0 0.00 0.00 0.00 37 997.7
20260505012054 70 300 4.0 12.0 0.00 0.00 0.00 38 997.4
20260505011554 71 327 4.0 10.0 0.00 0.00 0.00 39 997.1
20260505011051 71 305 5.0 11.0 0.00 0.00 0.00 39 997.0
20260505010549 71 309 4.0 11.0 0.00 0.00 0.00 39 996.9
20260505010048 72 277 4.0 10.0 0.00 0.00 0.00 39 996.8
20260505005550 72 330 4.0 11.0 0.00 0.00 0.00 39 996.8
20260505005050 72 310 5.0 15.0 0.00 0.00 0.00 39 996.7
20260505004549 73 245 7.0 15.0 0.00 0.00 0.00 39 996.5
20260505004049 74 262 7.0 14.0 0.00 0.00 0.00 38 996.3
20260505003550 74 325 6.0 14.0 0.00 0.00 0.00 37 996.0
20260505003533 74 300 5.0 14.0 0.00 0.00 0.00 36 995.8
20260505002552 74 245 4.0 9.0 0.00 0.00 0.00 36 995.6
20260505002050 75 225 4.0 9.0 0.00 0.00 0.00 36 995.5
20260505001546 75 233 4.0 8.0 0.00 0.00 0.00 36 995.4
20260505001046 75 265 4.0 9.0 0.00 0.00 0.00 35 995.5
20260505000544 75 244 4.0 9.0 0.00 0.00 0.00 35 995.5
20260505000039 75 264 4.0 8.0 0.00 0.00 0.00 34 995.4
20260504235804 76 170 5.0 14.0 0.00 0.00 0.00 34 995.4
20260504235041 76 220 6.0 14.0 0.00 0.00 0.00 34 995.6
20260504234540 76 256 5.0 9.0 0.00 0.00 0.00 34 995.6
20260504234041 76 227 6.0 15.0 0.00 0.00 0.00 34 995.7
20260504233540 76 174 9.0 18.0 0.00 0.00 0.00 33 995.6
20260504233041 77 214 9.0 18.0 0.00 0.00 0.00 33 995.8
20260504232542 77 222 8.0 14.0 0.00 0.00 0.00 33 996.1
20260504232039 78 225 7.0 16.0 0.00 0.00 0.00 32 995.4
20260504231539 78 231 7.0 16.0 0.00 0.00 0.00 33 995.8
20260504231300 78 207 7.0 15.0 0.00 0.00 0.00 32 995.8
20260504230805 78 289 7.0 15.0 0.00 0.00 0.00 32 995.9
20260504230259 78 230 6.0 12.0 0.00 0.00 0.00 33 995.9
20260504225534 78 298 6.0 15.0 0.00 0.00 0.00 33 995.9
20260504225035 78 218 6.0 15.0 0.00 0.00 0.00 33 995.9
20260504224536 78 186 6.0 14.0 0.00 0.00 0.00 33 996.0
20260504224036 79 222 8.0 15.0 0.00 0.00 0.00 32 995.9
20260504223536 79 223 7.0 15.0 0.00 0.00 0.00 31 995.9
20260504223035 79 270 6.0 13.0 0.00 0.00 0.00 32 995.9
20260504222535 79 236 7.0 13.0 0.00 0.00 0.00 32 996.0
20260504222036 79 207 7.0 15.0 0.00 0.00 0.00 31 996.0
20260504221535 80 208 8.0 15.0 0.00 0.00 0.00 31 996.0
20260504221302 80 243 8.0 15.0 0.00 0.00 0.00 31 996.1
20260504220537 80 208 8.0 14.0 0.00 0.00 0.00 30 996.0
20260504220036 80 225 7.0 14.0 0.00 0.00 0.00 29 996.0
20260504215535 79 258 8.0 18.0 0.00 0.00 0.00 30 996.1
20260504215034 79 221 9.0 18.0 0.00 0.00 0.00 30 996.3
20260504214534 80 239 9.0 16.0 0.00 0.00 0.00 29 996.2
20260504214258 79 250 9.0 19.0 0.00 0.00 0.00 29 996.3
20260504213535 79 224 9.0 19.0 0.00 0.00 0.00 29 996.2
20260504213035 79 237 9.0 21.0 0.00 0.00 0.00 29 996.3
20260504212535 79 258 10.0 21.0 0.00 0.00 0.00 28 996.5
20260504212035 79 277 9.0 19.0 0.00 0.00 0.00 28 996.5
20260504211756 79 247 9.0 17.0 0.00 0.00 0.00 30 996.3
20260504211030 79 255 7.0 17.0 0.00 0.00 0.00 31 996.6
20260504210529 79 204 6.0 19.0 0.00 0.00 0.00 32 996.7
20260504210025 78 247 7.0 19.0 0.00 0.00 0.00 31 996.7
20260504205758 79 260 9.0 19.0 0.00 0.00 0.00 31 996.8
20260504205025 79 258 9.0 19.0 0.00 0.00 0.00 30 996.7
20260504204525 79 270 6.0 11.0 0.00 0.00 0.00 31 996.7
20260504204256 79 299 7.0 13.0 0.00 0.00 0.00 30 996.7
20260504203526 79 223 8.0 15.0 0.00 0.00 0.00 30 997.0
20260504203246 79 268 8.0 15.0 0.00 0.00 0.00 30 997.1
20260504202526 78 263 7.0 15.0 0.00 0.00 0.00 30 997.0
20260504202027 78 180 8.0 15.0 0.00 0.00 0.00 30 997.0
20260504201748 78 224 9.0 18.0 0.00 0.00 0.00 30 997.3
20260504201024 78 312 10.0 18.0 0.00 0.00 0.00 30 997.3
20260504200521 78 254 9.0 18.0 0.00 0.00 0.00 29 997.5
20260504200019 78 279 7.0 14.0 0.00 0.00 0.00 30 997.4
20260504200007 78 209 9.0 15.0 0.00 0.00 0.00 30 997.6
20260504195022 78 245 9.0 18.0 0.00 0.00 0.00 29 997.5
20260504194520 78 281 8.0 18.0 0.00 0.00 0.00 29 997.5
20260504194020 78 210 7.0 16.0 0.00 0.00 0.00 30 997.6
20260504193520 78 269 7.0 13.0 0.00 0.00 0.00 30 997.6
20260504193020 77 263 7.0 14.0 0.00 0.01 0.00 30 997.4
20260504192520 77 251 7.0 14.0 0.00 0.01 0.00 29 997.6
20260504192021 77 205 7.0 16.0 0.00 0.01 0.00 30 997.6
20260504191521 77 221 7.0 16.0 0.00 0.01 0.00 29 997.7
20260504191021 77 174 7.0 13.0 0.00 0.01 0.00 30 997.7
20260504190737 77 242 7.0 16.0 0.00 0.01 0.00 31 997.5
20260504190019 77 282 7.0 16.0 0.00 0.01 0.00 30 997.7
20260504185520 77 101 7.0 14.0 0.00 0.01 0.00 31 997.7
20260504185015 77 223 7.0 14.0 0.00 0.01 0.00 30 997.8
20260504184517 77 215 8.0 13.0 0.00 0.01 0.00 30 997.8
20260504184015 76 262 7.0 13.0 0.00 0.01 0.00 31 997.8
20260504183515 76 175 6.0 13.0 0.00 0.01 0.00 31 997.9
20260504183016 76 254 8.0 15.0 0.00 0.01 0.00 31 997.9
20260504182515 76 219 8.0 16.0 0.00 0.01 0.00 31 997.8
20260504182015 76 222 8.0 16.0 0.00 0.01 0.00 30 998.0
20260504181515 76 279 8.0 15.0 0.00 0.01 0.00 31 998.0
20260504181013 75 225 8.0 15.0 0.00 0.01 0.00 31 998.1
20260504180510 76 189 8.0 15.0 0.00 0.01 0.00 29 998.0
20260504180232 76 177 8.0 17.0 0.00 0.01 0.00 31 998.1
20260504175730 75 255 8.0 17.0 0.00 0.01 0.00 31 997.8
20260504175009 75 248 7.0 15.0 0.00 0.01 0.00 30 998.1
20260504174729 75 189 7.0 16.0 0.00 0.01 0.00 31 998.1
20260504174008 75 235 8.0 16.0 0.00 0.01 0.00 31 998.2
20260504173727 75 226 9.0 15.0 0.00 0.01 0.00 30 998.4
20260504173008 75 220 8.0 15.0 0.00 0.01 0.00 31 998.4
20260504172509 75 211 8.0 15.0 0.00 0.01 0.00 30 998.6
20260504172228 74 223 8.0 15.0 0.00 0.01 0.00 30 998.5
20260504171954 74 205 8.0 15.0 0.00 0.01 0.00 30 998.6
20260504171008 74 247 8.0 16.0 0.00 0.01 0.00 30 998.6
20260504170509 74 174 8.0 16.0 0.00 0.01 0.00 31 998.8
20260504151001 71 267 7.0 21.0 0.00 0.01 0.00 32 1000.3
20260504150723 71 234 6.0 21.0 0.00 0.01 0.00 35 1000.1
20260504141003 67 208 6.0 13.0 0.00 0.01 0.00 41 1001.0
20260504140456 66 211 7.0 13.0 0.00 0.01 0.00 42 1001.1
20260504130456 61 247 5.0 10.0 0.00 0.01 0.00 49 1001.6
20260504110439 44 156 2.0 3.0 0.00 0.01 0.00 81 1001.8
20260504100410 45 155 2.0 3.0 0.00 0.01 0.00 83 1002.0
20260504081841 47 158 2.0 3.0 0.00 0.01 0.00 82 1003.1
20260504081342 46 139 2.0 3.0 0.00 0.01 0.00 84 1003.1
20260504080843 46 130 2.0 3.0 0.00 0.01 0.00 84 1003.1
20260504080327 46 136 2.0 3.0 0.00 0.01 0.00 84 1003.1